UAL200 YSSY-PANC

Flight info

Callsign UAL200
Flight time N/A
Altitude 33000
Route OLSEM DCT ISMUM DCT EMVUG DCT BANDA DCT 3042S15238E 3018S15257E 3017S15300E DCT LAMSI DCT VIRGE DCT 25S156E 20S158E/N0501F340 15S158E 10S158E 0525S15800E 05S158E 00N158E/N0493F360 05N158E 10N158E 15N158E/N0489F370 20N160E 25N163E 30N165E/N0478F390 35N168E 40N173E 45N180E 50N175W 55N170W/N0495F410 DCT EHM DCT HAMND NEELL7
Aircraft B772/H-SDE2E3FGHIJ5LORVWXY/LB1D1

Departure

Time 2026-05-01 09:21
Airport Sydney Kingsford Smith International Airport (YSSY)

Arrival

Time N/A
Airport Ted Stevens Anchorage International Airport (PANC)
Time Latitude Longitude Altitude Speed Heading
2026-05-01 08:59 -33.93796 151.16954 34 ft 0 kts 254°
2026-05-01 09:11 -33.93795 151.16958 16 ft 3 kts 254°
2026-05-01 09:11 -33.93787 151.16988 7 ft 4 kts 250°
2026-05-01 09:11 -33.93777 151.17018 34 ft 4 kts 240°
2026-05-01 09:12 -33.93762 151.17042 32 ft 4 kts 215°
2026-05-01 09:12 -33.93745 151.17051 32 ft 3 kts 170°
2026-05-01 09:12 -33.93743 151.17051 32 ft 0 kts 168°
2026-05-01 09:14 -33.93786 151.17061 32 ft 18 kts 169°
2026-05-01 09:14 -33.93901 151.17086 34 ft 15 kts 162°
2026-05-01 09:15 -33.93979 151.17149 34 ft 14 kts 111°
2026-05-01 09:15 -33.94011 151.17230 33 ft 11 kts 146°
2026-05-01 09:15 -33.94086 151.17252 33 ft 11 kts 171°
2026-05-01 09:15 -33.94165 151.17267 32 ft 14 kts 168°
2026-05-01 09:16 -33.94261 151.17297 34 ft 1 kts 166°
2026-05-01 09:16 -33.94353 151.17326 34 ft 23 kts 166°
2026-05-01 09:16 -33.94506 151.17363 35 ft 22 kts 168°
2026-05-01 09:17 -33.94799 151.17440 34 ft 21 kts 167°
2026-05-01 09:17 -33.94945 151.17477 34 ft 21 kts 168°
2026-05-01 09:17 -33.95235 151.17554 33 ft 21 kts 166°
2026-05-01 09:18 -33.95381 151.17590 34 ft 21 kts 169°
2026-05-01 09:18 -33.95584 151.17643 34 ft 10 kts 167°
2026-05-01 09:19 -33.95897 151.17726 34 ft 13 kts 168°
2026-05-01 09:19 -33.95966 151.17742 34 ft 23 kts 169°
2026-05-01 09:19 -33.96171 151.17797 34 ft 29 kts 169°
2026-05-01 09:20 -33.96435 151.17931 34 ft 0 kts 87°
2026-05-01 09:20 -33.96337 151.18041 34 ft 22 kts 350°
2026-05-01 09:21 -33.95160 151.17738 32 ft 152 kts 348°
2026-05-01 09:21 -33.93962 151.17462 276 ft 186 kts 351°
2026-05-01 09:21 -33.91514 151.16670 2053 ft 180 kts 339°
2026-05-01 09:22 -33.89544 151.14469 2411 ft 211 kts 316°
2026-05-01 09:22 -33.87397 151.11727 2949 ft 238 kts 316°
2026-05-01 09:23 -33.86213 151.10237 3217 ft 255 kts 316°
2026-05-01 09:23 -33.83327 151.07811 4116 ft 259 kts 354°
2026-05-01 09:24 -33.80030 151.09084 5284 ft 259 kts 39°
2026-05-01 09:24 -33.78653 151.10500 5881 ft 262 kts 41°
2026-05-01 09:24 -33.75935 151.13479 7079 ft 267 kts 42°
2026-05-01 09:25 -33.73189 151.16521 8248 ft 271 kts 42°
2026-05-01 09:25 -33.70422 151.19617 9394 ft 276 kts 42°
2026-05-01 09:26 -33.69019 151.21198 9979 ft 278 kts 43°
2026-05-01 09:26 -33.66075 151.24518 10488 ft 308 kts 42°
2026-05-01 09:26 -33.64341 151.26043 10582 ft 322 kts 25°
2026-05-01 09:27 -33.59921 151.28087 10955 ft 357 kts 20°
2026-05-01 09:27 -33.57559 151.29130 11420 ft 367 kts 20°
2026-05-01 09:27 -33.55149 151.30213 11982 ft 373 kts 21°
2026-05-01 09:28 -33.52708 151.31332 12632 ft 377 kts 21°
2026-05-01 09:28 -33.50254 151.32473 13293 ft 381 kts 21°
2026-05-01 09:28 -33.47770 151.33640 13916 ft 386 kts 22°
2026-05-01 09:28 -33.45290 151.34813 14480 ft 390 kts 22°
2026-05-01 09:29 -33.40196 151.37233 15618 ft 397 kts 22°
2026-05-01 09:29 -33.37619 151.38459 16176 ft 401 kts 22°
2026-05-01 09:30 -33.32378 151.40951 17254 ft 409 kts 22°
2026-05-01 09:30 -33.29726 151.42211 17770 ft 412 kts 22°
2026-05-01 09:30 -33.24373 151.44751 18734 ft 421 kts 22°
2026-05-01 09:31 -33.21641 151.46046 19172 ft 424 kts 22°
2026-05-01 09:31 -33.18893 151.47347 19652 ft 426 kts 22°
2026-05-01 09:31 -33.13349 151.49970 20572 ft 431 kts 22°
2026-05-01 09:32 -33.10552 151.51292 20994 ft 434 kts 22°
2026-05-01 09:32 -33.04905 151.53958 21859 ft 439 kts 21°
2026-05-01 09:32 -33.02053 151.55303 22265 ft 442 kts 21°
2026-05-01 09:33 -32.99227 151.56636 22662 ft 445 kts 21°
2026-05-01 09:33 -32.96325 151.58003 23069 ft 448 kts 21°
2026-05-01 09:33 -32.90488 151.60749 23887 ft 454 kts 21°
2026-05-01 09:34 -32.87543 151.62133 24233 ft 456 kts 21°
2026-05-01 09:34 -32.84582 151.63524 24562 ft 459 kts 21°
2026-05-01 09:34 -32.78610 151.66326 25238 ft 464 kts 21°
2026-05-01 09:35 -32.75603 151.67735 25566 ft 466 kts 21°
2026-05-01 09:35 -32.70579 151.70088 26076 ft 470 kts 21°
2026-05-01 09:35 -32.66542 151.71976 26485 ft 473 kts 21°
2026-05-01 09:36 -32.63470 151.73412 26772 ft 475 kts 21°
2026-05-01 09:36 -32.60390 151.74850 27034 ft 478 kts 21°
2026-05-01 09:36 -32.58337 151.75808 27223 ft 479 kts 21°
2026-05-01 09:36 -32.54175 151.77748 27591 ft 482 kts 21°
2026-05-01 09:37 -32.52106 151.78713 27737 ft 484 kts 21°
2026-05-01 09:37 -32.45814 151.81642 28263 ft 487 kts 21°
2026-05-01 09:37 -32.42654 151.83111 28552 ft 488 kts 21°
2026-05-01 09:38 -32.36303 151.86061 28968 ft 493 kts 21°
2026-05-01 09:38 -32.33108 151.87543 29167 ft 495 kts 21°
2026-05-01 09:38 -32.29896 151.89032 29372 ft 496 kts 21°
2026-05-01 09:39 -32.23493 151.91997 29763 ft 499 kts 21°
2026-05-01 09:39 -32.20258 151.93494 29914 ft 501 kts 21°
2026-05-01 09:39 -32.17003 151.94998 30091 ft 502 kts 21°
2026-05-01 09:40 -32.13750 151.96500 30309 ft 502 kts 21°
2026-05-01 09:40 -32.07242 151.99501 30746 ft 502 kts 21°
2026-05-01 09:40 -32.03994 152.00998 30946 ft 502 kts 21°
2026-05-01 09:41 -32.00742 152.02495 31111 ft 502 kts 21°
2026-05-01 09:41 -31.94231 152.05489 31447 ft 503 kts 21°
2026-05-01 09:41 -31.90971 152.06987 31633 ft 503 kts 21°
2026-05-01 09:42 -31.87709 152.08484 31805 ft 503 kts 21°
2026-05-01 09:42 -31.84497 152.09957 31975 ft 503 kts 21°
2026-05-01 09:42 -31.77976 152.12945 32329 ft 503 kts 21°
2026-05-01 09:43 -31.71453 152.15929 32658 ft 504 kts 21°
2026-05-01 09:43 -31.68186 152.17422 32820 ft 504 kts 20°
2026-05-01 09:43 -31.64922 152.18912 32991 ft 504 kts 20°
2026-05-01 09:44 -31.58385 152.21893 33272 ft 505 kts 20°
2026-05-01 09:44 -31.55101 152.23389 33324 ft 506 kts 20°
2026-05-01 09:45 -31.50248 152.25597 33366 ft 502 kts 20°
2026-05-01 09:45 -31.40422 152.30062 33382 ft 508 kts 20°
2026-05-01 09:46 -31.33819 152.33059 33374 ft 509 kts 20°
2026-05-01 09:46 -31.27205 152.36064 33371 ft 510 kts 21°
2026-05-01 09:47 -31.20644 152.39037 33375 ft 509 kts 21°
2026-05-01 09:47 -31.14043 152.42017 33368 ft 508 kts 21°
2026-05-01 09:48 -31.07444 152.44988 33367 ft 508 kts 20°
2026-05-01 09:48 -31.00856 152.47943 33369 ft 508 kts 20°
2026-05-01 09:49 -30.94261 152.50897 33363 ft 508 kts 20°
2026-05-01 09:49 -30.87713 152.53841 33364 ft 508 kts 20°
2026-05-01 09:50 -30.81125 152.56799 33368 ft 508 kts 21°
2026-05-01 09:50 -30.74762 152.60381 33358 ft 509 kts 27°
2026-05-01 09:51 -30.68560 152.64358 33362 ft 509 kts 33°
2026-05-01 09:51 -30.62713 152.69009 33350 ft 510 kts 35°
2026-05-01 09:52 -30.56923 152.73680 33361 ft 510 kts 34°
2026-05-01 09:52 -30.51066 152.78346 33355 ft 512 kts 34°
2026-05-01 09:53 -30.45180 152.83005 33351 ft 512 kts 34°
2026-05-01 09:53 -30.39297 152.87658 33339 ft 513 kts 34°
2026-05-01 09:54 -30.33461 152.92402 33333 ft 512 kts 41°
2026-05-01 09:54 -30.28921 152.98609 33330 ft 510 kts 60°
2026-05-01 09:55 -30.25202 153.05486 33317 ft 506 kts 43°
2026-05-01 09:55 -30.22340 153.07840 33326 ft 507 kts 24°
2026-05-01 09:55 -30.19024 153.09230 33339 ft 508 kts 14°
2026-05-01 09:56 -30.12204 153.11542 33335 ft 514 kts 19°
2026-05-01 09:56 -30.05673 153.14819 33334 ft 518 kts 27°
2026-05-01 09:57 -29.99374 153.18870 33332 ft 519 kts 30°
2026-05-01 09:57 -29.93162 153.23099 33327 ft 518 kts 30°
2026-05-01 09:58 -29.86957 153.27255 33322 ft 517 kts 29°
2026-05-01 09:58 -29.80751 153.31335 33324 ft 516 kts 29°
2026-05-01 09:59 -29.74508 153.35410 33316 ft 515 kts 29°
2026-05-01 09:59 -29.68277 153.39473 33316 ft 515 kts 29°
2026-05-01 10:00 -29.62050 153.43533 33316 ft 515 kts 29°
2026-05-01 10:00 -29.55820 153.47591 33314 ft 515 kts 29°
2026-05-01 10:01 -29.49629 153.51618 33309 ft 515 kts 29°
2026-05-01 10:01 -29.43393 153.55668 33308 ft 515 kts 28°
2026-05-01 10:02 -29.37154 153.59714 33304 ft 516 kts 28°
2026-05-01 10:02 -29.30891 153.63770 33305 ft 518 kts 28°
2026-05-01 10:03 -29.24603 153.67836 33302 ft 520 kts 28°
2026-05-01 10:03 -29.18343 153.71879 33297 ft 520 kts 28°
2026-05-01 10:04 -29.12030 153.75950 33288 ft 520 kts 28°
2026-05-01 10:04 -29.05725 153.80010 33293 ft 520 kts 28°
2026-05-01 10:05 -28.99425 153.84062 33286 ft 520 kts 28°
2026-05-01 10:05 -28.93167 153.88080 33289 ft 519 kts 28°
2026-05-01 10:06 -28.86871 153.92117 33277 ft 519 kts 28°
2026-05-01 10:06 -28.80577 153.96147 33280 ft 519 kts 28°
2026-05-01 10:07 -28.74287 154.00170 33278 ft 518 kts 28°
2026-05-01 10:07 -28.67996 154.04187 33276 ft 518 kts 28°
2026-05-01 10:08 -28.58608 154.10172 33269 ft 518 kts 28°
2026-05-01 10:09 -28.52317 154.14177 33270 ft 518 kts 28°
2026-05-01 10:09 -28.46034 154.18170 33263 ft 518 kts 27°
2026-05-01 10:10 -28.39522 154.21611 33270 ft 515 kts 20°
2026-05-01 10:10 -28.29549 154.26015 33255 ft 515 kts 19°
2026-05-01 10:11 -28.22877 154.28992 33258 ft 515 kts 19°
2026-05-01 10:11 -28.16215 154.31996 33256 ft 515 kts 20°
2026-05-01 10:12 -28.09549 154.35006 33255 ft 516 kts 19°
2026-05-01 10:13 -27.99595 154.39487 33248 ft 515 kts 19°
2026-05-01 10:13 -27.92926 154.42483 33247 ft 515 kts 19°
2026-05-01 10:14 -27.82931 154.46964 33245 ft 515 kts 19°
2026-05-01 10:14 -27.76314 154.49926 33238 ft 515 kts 19°
2026-05-01 10:15 -27.69649 154.52907 33235 ft 515 kts 19°
2026-05-01 10:15 -27.62994 154.55878 33234 ft 515 kts 19°
2026-05-01 10:16 -27.56332 154.58848 33231 ft 514 kts 19°
2026-05-01 10:17 -27.46397 154.63272 33221 ft 514 kts 19°
2026-05-01 10:17 -27.36432 154.67700 33222 ft 513 kts 19°
2026-05-01 10:18 -27.26461 154.72123 33216 ft 513 kts 19°
2026-05-01 10:19 -27.19923 154.75201 33214 ft 514 kts 24°
2026-05-01 10:19 -27.13562 154.78891 33216 ft 515 kts 25°
2026-05-01 10:20 -27.04046 154.84474 33207 ft 514 kts 25°
2026-05-01 10:20 -26.97689 154.88156 33218 ft 514 kts 25°
2026-05-01 10:21 -26.88190 154.93624 33202 ft 514 kts 25°
2026-05-01 10:22 -26.78658 154.99104 33194 ft 513 kts 25°
2026-05-01 10:23 -26.69137 155.04569 33191 ft 512 kts 24°
2026-05-01 10:23 -26.59670 155.09993 33181 ft 512 kts 24°
2026-05-01 10:24 -26.47002 155.17235 33180 ft 511 kts 24°
2026-05-01 10:25 -26.34396 155.24424 33170 ft 510 kts 24°
2026-05-01 10:26 -26.28082 155.28018 33171 ft 510 kts 24°
2026-05-01 10:27 -26.15493 155.35170 33163 ft 509 kts 24°
2026-05-01 10:28 -26.06029 155.40536 33160 ft 509 kts 24°
2026-05-01 10:28 -25.96569 155.45890 33155 ft 508 kts 24°
2026-05-01 10:29 -25.87113 155.51231 33186 ft 509 kts 24°
2026-05-01 10:30 -25.74490 155.58346 33145 ft 511 kts 24°
2026-05-01 10:31 -25.61796 155.65485 33141 ft 512 kts 24°
2026-05-01 10:32 -25.52293 155.70818 33139 ft 513 kts 24°
2026-05-01 10:33 -25.39550 155.77955 33137 ft 513 kts 23°
2026-05-01 10:34 -25.29990 155.83297 33132 ft 513 kts 23°
2026-05-01 10:34 -25.23655 155.86832 33132 ft 513 kts 23°
2026-05-01 10:35 -25.14087 155.92164 33130 ft 513 kts 23°
2026-05-01 10:35 -25.07713 155.95712 33130 ft 513 kts 23°
2026-05-01 10:36 -24.98098 156.00882 33130 ft 510 kts 18°
2026-05-01 10:37 -24.91518 156.03617 33119 ft 509 kts 16°
2026-05-01 10:37 -24.81545 156.07674 33126 ft 509 kts 16°
2026-05-01 10:38 -24.74911 156.10410 33121 ft 509 kts 16°
2026-05-01 10:38 -24.68276 156.13160 33120 ft 510 kts 16°
2026-05-01 10:39 -24.61688 156.15890 33113 ft 510 kts 16°
2026-05-01 10:39 -24.55052 156.18635 33123 ft 510 kts 16°
2026-05-01 10:40 -24.48416 156.21375 33108 ft 510 kts 16°
2026-05-01 10:40 -24.41779 156.24112 33115 ft 510 kts 16°
2026-05-01 10:41 -24.35133 156.26850 33108 ft 510 kts 15°
2026-05-01 10:42 -24.25217 156.30929 33126 ft 510 kts 15°
2026-05-01 10:42 -24.18574 156.33658 33122 ft 510 kts 15°
2026-05-01 10:43 -24.11932 156.36383 33119 ft 510 kts 15°
2026-05-01 10:43 -24.05292 156.39105 33112 ft 510 kts 15°
2026-05-01 10:44 -23.98694 156.41807 33113 ft 510 kts 15°
2026-05-01 10:44 -23.92058 156.44521 33112 ft 510 kts 15°
2026-05-01 10:45 -23.85414 156.47235 33114 ft 509 kts 15°
2026-05-01 10:45 -23.78771 156.49946 33112 ft 509 kts 15°
2026-05-01 10:46 -23.72133 156.52652 33113 ft 509 kts 15°
2026-05-01 10:46 -23.65536 156.55339 33112 ft 509 kts 15°
2026-05-01 10:47 -23.58901 156.58038 33110 ft 509 kts 14°
2026-05-01 10:47 -23.52266 156.60734 33106 ft 509 kts 14°
2026-05-01 10:48 -23.45625 156.63429 33106 ft 509 kts 14°
2026-05-01 10:48 -23.38987 156.66120 33108 ft 509 kts 14°
2026-05-01 10:49 -23.32391 156.68791 33105 ft 509 kts 14°
2026-05-01 10:49 -23.25756 156.71476 33105 ft 509 kts 14°
2026-05-01 10:50 -23.19120 156.74158 33104 ft 509 kts 14°
2026-05-01 10:50 -23.12490 156.76835 33102 ft 509 kts 14°
2026-05-01 10:51 -23.05900 156.79492 33100 ft 509 kts 14°
2026-05-01 10:51 -22.99268 156.82164 33100 ft 508 kts 14°
2026-05-01 10:52 -22.92630 156.84835 33100 ft 508 kts 14°
2026-05-01 10:52 -22.85997 156.87502 33101 ft 508 kts 13°
2026-05-01 10:53 -22.79404 156.90150 33101 ft 508 kts 13°
2026-05-01 10:53 -22.72771 156.92811 33097 ft 509 kts 13°
2026-05-01 10:54 -22.66132 156.95472 33097 ft 509 kts 13°
2026-05-01 10:54 -22.59497 156.98129 33091 ft 509 kts 13°
2026-05-01 10:55 -22.52855 157.00785 33095 ft 509 kts 13°
2026-05-01 10:55 -22.46265 157.03418 33093 ft 508 kts 13°
2026-05-01 10:56 -22.39627 157.06068 33093 ft 508 kts 13°
2026-05-01 10:56 -22.32999 157.08711 33089 ft 508 kts 13°
2026-05-01 10:57 -22.26360 157.11355 33086 ft 508 kts 13°
2026-05-01 10:57 -22.19768 157.13979 33086 ft 508 kts 13°
2026-05-01 10:58 -22.13135 157.16615 33088 ft 508 kts 13°
2026-05-01 10:58 -22.06497 157.19251 33082 ft 508 kts 13°
2026-05-01 10:59 -21.99861 157.21884 33087 ft 508 kts 13°
2026-05-01 10:59 -21.93269 157.24497 33077 ft 508 kts 12°
2026-05-01 11:00 -21.86638 157.27122 33079 ft 508 kts 12°
2026-05-01 11:00 -21.80005 157.29746 33084 ft 508 kts 12°
2026-05-01 11:01 -21.73372 157.32367 33083 ft 508 kts 12°
2026-05-01 11:01 -21.66739 157.34986 33081 ft 508 kts 12°
2026-05-01 11:02 -21.60110 157.37600 33081 ft 508 kts 12°
2026-05-01 11:02 -21.53525 157.40195 33073 ft 507 kts 12°
2026-05-01 11:03 -21.46898 157.42804 33074 ft 507 kts 12°
2026-05-01 11:03 -21.40274 157.45409 33075 ft 507 kts 12°
2026-05-01 11:04 -21.33648 157.48011 33071 ft 507 kts 12°
2026-05-01 11:04 -21.27068 157.50594 33071 ft 507 kts 12°
2026-05-01 11:05 -21.20447 157.53190 33071 ft 507 kts 12°
2026-05-01 11:05 -21.13826 157.55784 33073 ft 507 kts 12°
2026-05-01 11:06 -21.07208 157.58374 33069 ft 506 kts 12°
2026-05-01 11:06 -21.00634 157.60944 33078 ft 506 kts 12°
2026-05-01 11:07 -20.90711 157.64820 33068 ft 506 kts 11°
2026-05-01 11:07 -20.84095 157.67400 33066 ft 506 kts 11°
2026-05-01 11:08 -20.77528 157.69960 33063 ft 505 kts 11°
2026-05-01 11:09 -20.67625 157.73815 33061 ft 505 kts 11°
2026-05-01 11:09 -20.61028 157.76380 33061 ft 504 kts 11°
2026-05-01 11:10 -20.51144 157.80218 33061 ft 504 kts 11°
2026-05-01 11:10 -20.44608 157.82754 33057 ft 503 kts 11°
2026-05-01 11:11 -20.38034 157.85301 33060 ft 503 kts 11°
2026-05-01 11:11 -20.31461 157.87847 33067 ft 502 kts 11°
2026-05-01 11:12 -20.24894 157.90387 33064 ft 502 kts 11°
2026-05-01 11:12 -20.18380 157.92906 33062 ft 501 kts 11°
2026-05-01 11:13 -20.11829 157.95436 33066 ft 501 kts 11°
2026-05-01 11:13 -20.05278 157.97962 33063 ft 500 kts
2026-05-01 11:14 -19.98652 157.99663 33065 ft 483 kts 359°
2026-05-01 11:14 -19.92042 158.00091 33062 ft 471 kts 351°
2026-05-01 11:15 -19.85526 158.00046 33057 ft 471 kts 351°
2026-05-01 11:15 -19.78964 158.00009 33058 ft 472 kts 351°
2026-05-01 11:16 -19.72390 157.99995 33057 ft 473 kts 351°
2026-05-01 11:16 -19.65807 157.99995 33057 ft 473 kts 351°
2026-05-01 11:17 -19.59224 157.99996 33056 ft 474 kts 351°
2026-05-01 11:17 -19.52668 157.99998 33058 ft 474 kts 351°
2026-05-01 11:18 -19.46067 157.99998 33055 ft 475 kts 351°
2026-05-01 11:18 -19.39463 157.99998 33053 ft 475 kts 351°
2026-05-01 11:19 -19.32847 157.99998 33052 ft 476 kts 351°
2026-05-01 11:19 -19.26272 157.99998 33050 ft 476 kts 352°
2026-05-01 11:20 -19.19637 157.99998 33049 ft 477 kts 352°
2026-05-01 11:20 -19.13000 157.99998 33050 ft 477 kts 352°
2026-05-01 11:21 -19.06360 157.99998 33046 ft 478 kts 352°
2026-05-01 11:21 -18.99750 157.99998 33043 ft 478 kts 352°
2026-05-01 11:22 -18.93092 157.99998 33046 ft 479 kts 352°
2026-05-01 11:22 -18.86425 157.99998 33039 ft 479 kts 352°
2026-05-01 11:23 -18.79759 157.99999 33050 ft 480 kts 352°
2026-05-01 11:23 -18.73120 157.99999 33041 ft 480 kts 352°
2026-05-01 11:24 -18.66442 157.99999 33041 ft 480 kts 352°
2026-05-01 11:25 -18.56418 157.99999 33039 ft 480 kts 352°
2026-05-01 11:25 -18.46385 157.99999 33037 ft 481 kts 353°
2026-05-01 11:26 -18.36395 157.99999 33035 ft 481 kts 353°
2026-05-01 11:27 -18.29702 157.99999 33033 ft 481 kts 353°
2026-05-01 11:27 -18.23003 157.99999 33030 ft 482 kts 353°
2026-05-01 11:28 -18.16298 157.99999 33032 ft 482 kts 353°
2026-05-01 11:28 -18.09633 157.99999 33025 ft 482 kts 353°
2026-05-01 11:29 -17.99564 157.99999 33028 ft 483 kts 353°
2026-05-01 11:30 -17.89486 157.99999 33026 ft 483 kts 353°
2026-05-01 11:30 -17.82915 157.99999 33027 ft 483 kts 353°
2026-05-01 11:31 -17.76190 157.99999 33020 ft 483 kts 353°
2026-05-01 11:31 -17.69468 157.99999 33020 ft 483 kts 353°
2026-05-01 11:32 -17.62728 157.99999 33268 ft 483 kts 353°
2026-05-01 11:32 -17.59374 158.00000 33497 ft 481 kts 353°
2026-05-01 11:32 -17.56038 158.00001 33714 ft 479 kts 353°
2026-05-01 11:32 -17.52703 158.00002 33881 ft 479 kts 353°
2026-05-01 11:33 -17.49414 158.00001 33948 ft 480 kts 353°
2026-05-01 11:33 -17.42733 157.99999 34011 ft 480 kts 354°
2026-05-01 11:34 -17.36062 157.99999 34008 ft 479 kts 354°
2026-05-01 11:34 -17.29397 158.00000 34015 ft 479 kts 354°
2026-05-01 11:35 -17.22775 158.00000 34015 ft 479 kts 354°
2026-05-01 11:35 -17.16112 158.00000 34013 ft 479 kts 354°
2026-05-01 11:36 -17.09448 157.99999 34009 ft 479 kts 354°
2026-05-01 11:36 -17.02785 157.99999 34012 ft 479 kts 354°
2026-05-01 11:37 -16.96129 157.99999 34009 ft 480 kts 354°
2026-05-01 11:37 -16.89492 157.99999 34007 ft 481 kts 354°
2026-05-01 11:38 -16.82796 157.99999 34005 ft 481 kts 354°
2026-05-01 11:38 -16.76093 157.99999 34003 ft 482 kts 354°
2026-05-01 11:39 -16.69384 157.99999 34003 ft 482 kts 354°
2026-05-01 11:39 -16.62668 157.99999 34001 ft 483 kts 354°
2026-05-01 11:40 -16.55995 157.99999 33999 ft 483 kts 354°
2026-05-01 11:40 -16.49274 157.99999 33997 ft 483 kts 355°
2026-05-01 11:41 -16.42543 157.99999 34000 ft 483 kts 355°
2026-05-01 11:41 -16.35814 158.00000 34001 ft 483 kts 355°
2026-05-01 11:42 -16.29130 158.00000 33997 ft 483 kts 355°
2026-05-01 11:42 -16.22407 158.00000 33994 ft 483 kts 355°
2026-05-01 11:43 -16.15682 158.00000 33993 ft 483 kts 355°
2026-05-01 11:43 -16.08961 158.00000 33991 ft 483 kts 355°
2026-05-01 11:44 -15.98931 158.00000 33992 ft 482 kts 355°
2026-05-01 11:44 -15.92219 158.00000 33989 ft 482 kts 355°
2026-05-01 11:45 -15.85515 158.00000 33987 ft 481 kts 355°
2026-05-01 11:45 -15.78816 158.00000 33982 ft 481 kts 356°
2026-05-01 11:46 -15.72176 158.00000 33985 ft 480 kts 356°
2026-05-01 11:46 -15.65498 158.00000 33981 ft 480 kts 356°
2026-05-01 11:47 -15.58827 158.00000 33981 ft 479 kts 356°
2026-05-01 11:47 -15.52161 158.00000 33983 ft 479 kts 356°
2026-05-01 11:48 -15.45546 158.00000 33984 ft 479 kts 356°
2026-05-01 11:48 -15.38887 158.00000 33982 ft 478 kts 356°
2026-05-01 11:49 -15.32229 158.00000 33981 ft 479 kts 356°
2026-05-01 11:49 -15.25568 158.00000 33979 ft 479 kts 356°
2026-05-01 11:50 -15.20030 158.00000 33988 ft 479 kts 356°
2026-05-01 11:50 -15.12280 158.00000 33981 ft 479 kts 356°
2026-05-01 11:51 -15.05604 158.00000 33970 ft 480 kts 356°
2026-05-01 11:51 -15.00048 158.00000 33967 ft 480 kts 356°
2026-05-01 11:52 -14.93362 158.00000 33963 ft 481 kts 356°
2026-05-01 11:52 -14.85574 158.00000 33973 ft 482 kts 356°
2026-05-01 11:53 -14.78865 158.00000 33965 ft 482 kts 356°
2026-05-01 11:53 -14.73287 158.00000 33966 ft 483 kts 356°
2026-05-01 11:54 -14.66564 158.00000 33965 ft 483 kts 356°
2026-05-01 11:54 -14.59840 158.00000 33962 ft 483 kts 356°
2026-05-01 11:55 -14.53120 158.00000 33965 ft 483 kts 356°
2026-05-01 11:55 -14.46436 158.00000 33959 ft 483 kts 356°
2026-05-01 11:56 -14.39716 158.00000 33962 ft 483 kts 356°
2026-05-01 11:56 -14.32997 158.00000 33959 ft 483 kts 356°
2026-05-01 11:57 -14.26284 158.00000 33958 ft 482 kts 356°
2026-05-01 11:57 -14.19576 158.00000 33953 ft 482 kts 357°
2026-05-01 11:58 -14.12925 158.00000 33955 ft 481 kts 357°
2026-05-01 11:59 -14.02897 158.00000 33952 ft 480 kts 357°
2026-05-01 11:59 -13.96228 158.00000 33958 ft 479 kts 357°
2026-05-01 12:00 -13.86289 158.00000 33956 ft 478 kts 357°
2026-05-01 12:01 -13.76331 158.00000 33947 ft 477 kts 358°
2026-05-01 12:01 -13.69694 158.00000 33950 ft 476 kts 358°
2026-05-01 12:02 -13.63065 158.00000 33948 ft 477 kts 358°
2026-05-01 12:02 -13.56478 158.00000 33946 ft 477 kts 358°
2026-05-01 12:03 -13.49844 158.00000 33952 ft 477 kts 358°
2026-05-01 12:03 -13.43196 158.00000 33952 ft 478 kts 358°
2026-05-01 12:04 -13.36536 158.00000 33943 ft 479 kts 358°
2026-05-01 12:04 -13.29862 158.00000 33940 ft 480 kts 358°
2026-05-01 12:05 -13.23218 158.00000 33940 ft 481 kts 358°
2026-05-01 12:05 -13.13156 158.00000 33939 ft 483 kts 358°
2026-05-01 12:06 -13.06434 158.00000 33940 ft 483 kts 358°
2026-05-01 12:06 -12.99747 158.00000 33938 ft 484 kts 358°
2026-05-01 12:07 -12.93012 158.00000 33935 ft 484 kts 358°
2026-05-01 12:07 -12.86270 158.00000 33936 ft 484 kts 358°
2026-05-01 12:08 -12.79529 158.00000 33935 ft 485 kts 358°
2026-05-01 12:08 -12.72786 158.00000 33936 ft 485 kts 358°
2026-05-01 12:09 -12.66085 157.99999 33934 ft 485 kts 359°
2026-05-01 12:09 -12.59343 157.99999 33929 ft 485 kts 359°
2026-05-01 12:10 -12.49227 158.00000 33931 ft 484 kts 359°
2026-05-01 12:11 -12.39166 158.00000 33929 ft 484 kts 359°
2026-05-01 12:11 -12.32431 158.00001 33926 ft 484 kts 359°
2026-05-01 12:12 -12.25704 158.00000 33927 ft 483 kts 359°
2026-05-01 12:12 -12.18979 158.00000 33927 ft 483 kts 359°
2026-05-01 12:13 -12.12310 158.00000 33923 ft 483 kts 359°
2026-05-01 12:13 -12.05597 158.00000 33922 ft 482 kts 359°
2026-05-01 12:14 -11.98890 158.00001 33921 ft 482 kts 359°
2026-05-01 12:14 -11.92185 158.00000 33921 ft 482 kts 359°
2026-05-01 12:15 -11.85474 158.00000 33924 ft 482 kts 359°
2026-05-01 12:15 -11.78800 158.00000 33921 ft 483 kts 359°
2026-05-01 12:16 -11.72065 158.00000 33918 ft 485 kts 359°
2026-05-01 12:16 -11.65307 158.00000 33923 ft 486 kts 359°
2026-05-01 12:17 -11.58528 158.00000 33918 ft 488 kts 359°
2026-05-01 12:17 -11.51726 158.00002 33917 ft 489 kts 359°
2026-05-01 12:18 -11.44967 158.00002 33916 ft 489 kts 359°
2026-05-01 12:18 -11.38159 158.00000 33914 ft 489 kts 358°
2026-05-01 12:19 -11.31346 158.00000 33914 ft 489 kts 358°
2026-05-01 12:19 -11.24539 158.00001 33916 ft 489 kts 359°
2026-05-01 12:20 -11.17781 158.00001 33912 ft 489 kts 359°
2026-05-01 12:20 -11.10977 158.00000 33911 ft 489 kts 358°
2026-05-01 12:21 -11.04177 157.99999 33912 ft 489 kts 359°
2026-05-01 12:21 -10.97381 157.99999 33912 ft 488 kts 359°
2026-05-01 12:22 -10.90626 158.00000 33912 ft 488 kts 358°
2026-05-01 12:22 -10.83836 158.00000 33911 ft 488 kts 359°
2026-05-01 12:23 -10.77042 158.00000 33909 ft 488 kts 359°
2026-05-01 12:23 -10.70259 158.00000 33900 ft 487 kts 359°
2026-05-01 12:24 -10.63525 158.00000 33903 ft 487 kts 359°
2026-05-01 12:24 -10.56756 158.00000 33905 ft 486 kts 359°
2026-05-01 12:25 -10.46618 158.00000 33900 ft 485 kts 359°
2026-05-01 12:26 -10.39869 158.00000 33903 ft 485 kts 359°
2026-05-01 12:26 -10.29802 158.00000 33900 ft 484 kts 359°
2026-05-01 12:27 -10.19697 158.00000 33900 ft 484 kts 359°
2026-05-01 12:28 -10.09606 157.99999 33896 ft 483 kts 359°
2026-05-01 12:29 -9.99569 158.00000 33898 ft 483 kts 359°
2026-05-01 12:29 -9.89487 158.00000 33897 ft 483 kts 359°
2026-05-01 12:30 -9.79402 158.00000 33903 ft 483 kts 359°
2026-05-01 12:31 -9.72816 158.00000 33899 ft 483 kts 359°
2026-05-01 12:31 -9.66091 158.00000 33900 ft 485 kts 360°
2026-05-01 12:32 -9.59327 158.00000 33896 ft 487 kts 360°
2026-05-01 12:32 -9.49163 158.00000 33894 ft 487 kts 360°
2026-05-01 12:33 -9.42424 158.00000 33899 ft 487 kts 360°
2026-05-01 12:33 -9.35645 158.00000 33890 ft 487 kts 360°
2026-05-01 12:34 -9.28871 158.00000 33892 ft 487 kts 360°
2026-05-01 12:34 -9.22095 158.00000 33892 ft 487 kts 360°
2026-05-01 12:35 -9.15366 158.00000 33896 ft 487 kts 360°
2026-05-01 12:35 -9.08592 158.00000 33895 ft 487 kts
2026-05-01 12:36 -9.01822 158.00000 33890 ft 487 kts
2026-05-01 12:36 -8.95049 158.00000 33892 ft 487 kts
2026-05-01 12:37 -8.88321 158.00000 33893 ft 487 kts
2026-05-01 12:37 -8.81536 158.00000 33894 ft 488 kts
2026-05-01 12:38 -8.74752 158.00000 33890 ft 488 kts
2026-05-01 12:38 -8.67958 158.00000 33898 ft 488 kts
2026-05-01 12:39 -8.61195 158.00000 33892 ft 489 kts
2026-05-01 12:39 -8.54383 158.00000 33894 ft 490 kts
2026-05-01 12:40 -8.47565 158.00000 33894 ft 490 kts
2026-05-01 12:40 -8.40742 158.00000 33892 ft 490 kts
2026-05-01 12:41 -8.33913 158.00000 33889 ft 491 kts
2026-05-01 12:41 -8.27135 158.00000 33887 ft 491 kts
2026-05-01 12:42 -8.20309 158.00000 33890 ft 491 kts
2026-05-01 12:42 -8.13474 158.00000 33885 ft 491 kts
2026-05-01 12:43 -8.06649 158.00000 33888 ft 491 kts
2026-05-01 12:43 -7.99869 158.00000 33886 ft 490 kts
2026-05-01 12:44 -7.93045 158.00000 33888 ft 490 kts
2026-05-01 12:45 -7.79403 158.00000 33886 ft 490 kts
2026-05-01 12:45 -7.72581 158.00000 33884 ft 490 kts
2026-05-01 12:46 -7.65806 158.00000 33886 ft 490 kts
2026-05-01 12:46 -7.58987 158.00000 33884 ft 490 kts
2026-05-01 12:47 -7.52161 158.00000 33883 ft 490 kts
2026-05-01 12:47 -7.45342 158.00000 33884 ft 491 kts
2026-05-01 12:48 -7.38556 158.00000 33884 ft 491 kts
2026-05-01 12:48 -7.31724 158.00000 33884 ft 491 kts
2026-05-01 12:49 -7.24887 158.00000 33881 ft 491 kts
2026-05-01 12:49 -7.18046 158.00000 33888 ft 491 kts
2026-05-01 12:50 -7.11256 158.00000 33884 ft 492 kts
2026-05-01 12:50 -7.04415 158.00000 33887 ft 492 kts
2026-05-01 12:51 -6.97570 158.00000 33881 ft 492 kts
2026-05-01 12:52 -6.87312 158.00000 33881 ft 492 kts
2026-05-01 12:52 -6.77196 158.00000 33883 ft 492 kts
2026-05-01 12:53 -6.66932 158.00000 33883 ft 492 kts
2026-05-01 12:54 -6.60082 158.00000 33878 ft 492 kts
2026-05-01 12:54 -6.49849 158.00000 33883 ft 493 kts
2026-05-01 12:55 -6.39569 158.00000 33878 ft 493 kts
2026-05-01 12:56 -6.32707 158.00000 33880 ft 493 kts
2026-05-01 12:56 -6.25843 158.00000 33880 ft 493 kts
2026-05-01 12:57 -6.19021 158.00000 33881 ft 494 kts
2026-05-01 12:57 -6.08719 158.00000 33881 ft 494 kts
2026-05-01 12:58 -6.01840 158.00000 33879 ft 494 kts
2026-05-01 12:59 -5.91570 158.00000 33880 ft 495 kts
2026-05-01 12:59 -5.81243 158.00000 33874 ft 495 kts
2026-05-01 13:00 -5.70906 158.00000 33876 ft 495 kts
2026-05-01 13:01 -5.60619 158.00000 33878 ft 495 kts
2026-05-01 13:02 -5.50300 158.00000 33877 ft 495 kts
2026-05-01 13:07 -4.75147 158.00000 33875 ft 492 kts
2026-05-01 13:08 -4.68302 158.00000 33874 ft 492 kts
2026-05-01 13:08 -4.61457 158.00000 33877 ft 492 kts
2026-05-01 13:09 -4.54610 158.00000 33876 ft 492 kts
2026-05-01 13:09 -4.47755 158.00000 33878 ft 492 kts
2026-05-01 13:10 -4.40950 158.00000 33876 ft 492 kts
2026-05-01 13:10 -4.34101 158.00000 33876 ft 492 kts
2026-05-01 13:11 -4.27244 158.00000 33872 ft 492 kts
2026-05-01 13:11 -4.20392 158.00000 33873 ft 493 kts
2026-05-01 13:12 -4.13581 158.00000 33874 ft 493 kts
2026-05-01 13:12 -4.06732 158.00000 33874 ft 493 kts
2026-05-01 13:13 -3.99875 158.00000 33873 ft 493 kts
2026-05-01 13:13 -3.93068 158.00000 33873 ft 493 kts
2026-05-01 13:14 -3.86215 158.00000 33874 ft 492 kts
2026-05-01 13:14 -3.79360 158.00000 33875 ft 492 kts
2026-05-01 13:15 -3.72506 158.00000 33874 ft 492 kts
2026-05-01 13:15 -3.65705 158.00000 33875 ft 492 kts
2026-05-01 13:16 -3.58852 158.00000 33875 ft 492 kts
2026-05-01 13:16 -3.52002 158.00000 33876 ft 492 kts
2026-05-01 13:17 -3.38353 158.00000 33873 ft 492 kts
2026-05-01 13:18 -3.28089 158.00000 33870 ft 492 kts
2026-05-01 13:18 -3.21245 158.00000 33874 ft 492 kts
2026-05-01 13:19 -3.14409 158.00000 33879 ft 492 kts
2026-05-01 13:20 -3.04196 158.00000 33877 ft 491 kts
2026-05-01 13:20 -2.97354 158.00000 33877 ft 491 kts
2026-05-01 13:21 -2.87105 158.00000 33878 ft 491 kts
2026-05-01 13:21 -2.80323 158.00000 33877 ft 491 kts
2026-05-01 13:22 -2.73502 158.00000 33876 ft 490 kts
2026-05-01 13:22 -2.66676 158.00000 33876 ft 490 kts
2026-05-01 13:23 -2.59853 158.00000 33876 ft 490 kts
2026-05-01 13:23 -2.53036 158.00000 33876 ft 490 kts
2026-05-01 13:24 -2.46278 158.00000 33876 ft 490 kts
2026-05-01 13:25 -2.36048 158.00000 33877 ft 490 kts
2026-05-01 13:25 -2.29232 158.00000 33875 ft 490 kts
2026-05-01 13:26 -2.22413 158.00000 33878 ft 490 kts
2026-05-01 13:26 -2.15635 158.00000 33876 ft 490 kts
2026-05-01 13:27 -2.08813 158.00000 33877 ft 490 kts
2026-05-01 13:27 -1.98573 158.00000 33877 ft 491 kts
2026-05-01 13:28 -1.88371 158.00000 33874 ft 491 kts
2026-05-01 13:29 -1.74701 158.00000 33879 ft 491 kts
2026-05-01 13:31 -1.54230 158.00000 33873 ft 492 kts
2026-05-01 13:32 -1.37126 158.00000 33873 ft 492 kts
2026-05-01 13:33 -1.20053 158.00000 33874 ft 492 kts
2026-05-01 13:34 -1.06449 158.00000 33874 ft 493 kts
2026-05-01 13:35 -0.96200 158.00000 33873 ft 493 kts
2026-05-01 13:36 -0.85898 158.00000 33869 ft 494 kts
2026-05-01 13:36 -0.75590 158.00000 33873 ft 494 kts
2026-05-01 13:37 -0.68760 158.00000 33868 ft 494 kts
2026-05-01 13:37 -0.61892 158.00000 33871 ft 494 kts
2026-05-01 13:38 -0.51593 158.00000 33871 ft 493 kts
2026-05-01 13:39 -0.44728 158.00000 33868 ft 493 kts
2026-05-01 13:39 -0.37922 158.00000 33869 ft 492 kts
2026-05-01 13:40 -0.31075 158.00000 33874 ft 492 kts
2026-05-01 13:40 -0.24231 158.00000 33871 ft 491 kts
2026-05-01 13:41 -0.17397 158.00000 33869 ft 491 kts
2026-05-01 13:41 -0.10615 158.00000 33868 ft 491 kts
2026-05-01 13:42 -0.03785 158.00000 33882 ft 491 kts
2026-05-01 13:42 -0.00368 158.00000 34039 ft 491 kts
2026-05-01 13:42 0.03037 158.00000 34256 ft 488 kts
2026-05-01 13:42 0.06423 158.00000 34488 ft 486 kts
2026-05-01 13:43 0.09805 157.99999 34700 ft 484 kts
2026-05-01 13:43 0.13169 157.99999 34886 ft 483 kts
2026-05-01 13:43 0.16528 157.99999 35052 ft 483 kts
2026-05-01 13:43 0.19846 158.00000 35223 ft 482 kts
2026-05-01 13:44 0.23193 158.00000 35406 ft 481 kts
2026-05-01 13:44 0.26542 158.00000 35594 ft 481 kts
2026-05-01 13:44 0.29882 158.00000 35749 ft 480 kts
2026-05-01 13:45 0.36569 158.00000 35847 ft 480 kts
2026-05-01 13:45 0.43248 158.00000 35866 ft 480 kts
2026-05-01 13:46 0.49883 158.00000 35871 ft 480 kts
2026-05-01 13:46 0.56560 158.00000 35869 ft 480 kts
2026-05-01 13:47 0.63236 158.00000 35867 ft 480 kts
2026-05-01 13:47 0.69910 158.00000 35869 ft 480 kts
2026-05-01 13:48 0.76545 158.00000 35869 ft 480 kts
2026-05-01 13:48 0.83231 158.00000 35869 ft 481 kts
2026-05-01 13:49 0.89925 158.00000 35869 ft 481 kts
2026-05-01 13:49 0.96625 158.00000 35869 ft 481 kts
2026-05-01 13:50 1.03324 158.00000 35869 ft 481 kts
2026-05-01 13:50 1.09972 158.00000 35868 ft 482 kts
2026-05-01 13:51 1.16698 158.00000 35870 ft 482 kts
2026-05-01 13:51 1.23351 158.00000 35862 ft 482 kts
2026-05-01 13:52 1.30060 158.00000 35869 ft 482 kts
2026-05-01 13:52 1.36763 158.00000 35866 ft 482 kts
2026-05-01 13:53 1.43481 158.00000 35865 ft 482 kts
2026-05-01 13:53 1.53505 158.00000 35866 ft 483 kts
2026-05-01 13:54 1.60222 158.00000 35866 ft 483 kts
2026-05-01 13:54 1.66942 158.00000 35864 ft 483 kts
2026-05-01 13:55 1.73667 158.00000 35863 ft 483 kts
2026-05-01 13:55 1.80348 158.00000 35866 ft 483 kts
2026-05-01 13:56 1.87076 158.00000 35865 ft 483 kts
2026-05-01 13:56 1.93800 158.00000 35863 ft 483 kts
2026-05-01 13:57 1.99392 158.00000 35863 ft 483 kts
2026-05-01 13:57 2.07211 158.00000 35866 ft 484 kts
2026-05-01 13:58 2.13945 158.00000 35865 ft 484 kts
2026-05-01 13:58 2.20682 158.00000 35866 ft 484 kts
2026-05-01 13:59 2.27432 158.00000 35867 ft 485 kts
2026-05-01 13:59 2.34186 158.00002 35863 ft 486 kts
2026-05-01 14:00 2.40899 158.00003 35863 ft 486 kts
2026-05-01 14:00 2.47661 158.00000 35863 ft 486 kts
2026-05-01 14:01 2.54436 158.00000 35866 ft 486 kts
2026-05-01 14:01 2.61203 157.99998 35865 ft 486 kts
2026-05-01 14:02 2.67925 157.99988 35859 ft 486 kts
2026-05-01 14:02 2.74687 157.99983 35865 ft 486 kts
2026-05-01 14:03 2.81442 157.99993 35869 ft 485 kts
2026-05-01 14:03 2.88198 158.00003 35861 ft 486 kts
2026-05-01 14:04 2.94960 158.00003 35862 ft 486 kts
2026-05-01 14:04 3.00578 158.00002 35861 ft 486 kts
2026-05-01 14:05 3.08437 158.00000 35863 ft 486 kts
2026-05-01 14:05 3.15207 158.00000 35862 ft 487 kts
2026-05-01 14:06 3.21981 158.00000 35862 ft 487 kts
2026-05-01 14:06 3.28712 158.00000 35864 ft 487 kts
2026-05-01 14:07 3.35496 158.00000 35865 ft 488 kts
2026-05-01 14:08 3.45687 158.00000 35859 ft 488 kts
2026-05-01 14:08 3.52486 158.00000 35860 ft 489 kts
2026-05-01 14:09 3.59241 158.00000 35860 ft 489 kts
2026-05-01 14:09 3.66048 158.00000 35859 ft 489 kts
2026-05-01 14:10 3.72862 158.00000 35859 ft 490 kts
2026-05-01 14:10 3.79676 158.00000 35859 ft 490 kts
2026-05-01 14:11 3.86496 158.00000 35858 ft 490 kts
2026-05-01 14:11 3.96679 158.00000 35861 ft 490 kts
2026-05-01 14:12 4.03506 158.00000 35862 ft 490 kts
2026-05-01 14:12 4.10323 158.00000 35860 ft 490 kts
2026-05-01 14:13 4.16002 158.00000 35860 ft 490 kts
2026-05-01 14:13 4.23932 158.00000 35861 ft 490 kts
2026-05-01 14:14 4.30755 158.00000 35860 ft 490 kts
2026-05-01 14:14 4.37579 158.00000 35860 ft 490 kts
2026-05-01 14:15 4.44398 158.00000 35861 ft 490 kts
2026-05-01 14:15 4.51183 158.00000 35858 ft 490 kts
2026-05-01 14:16 4.58008 158.00000 35861 ft 491 kts
2026-05-01 14:16 4.64837 158.00000 35860 ft 491 kts
2026-05-01 14:17 4.71664 158.00000 35863 ft 491 kts
2026-05-01 14:17 4.78457 158.00000 35861 ft 491 kts
2026-05-01 14:18 4.85301 158.00000 35860 ft 492 kts
2026-05-01 14:18 4.90989 158.00000 35859 ft 492 kts
2026-05-01 14:19 4.98997 158.00000 35861 ft 492 kts
2026-05-01 14:19 5.05850 158.00000 35860 ft 493 kts
2026-05-01 14:20 5.16101 158.00000 35861 ft 493 kts
2026-05-01 14:21 5.22971 158.00000 35860 ft 494 kts
2026-05-01 14:21 5.29846 158.00000 35862 ft 494 kts
2026-05-01 14:22 5.40111 158.00000 35860 ft 494 kts
2026-05-01 14:22 5.46995 158.00000 35861 ft 495 kts
2026-05-01 14:23 5.53881 158.00000 35860 ft 495 kts
2026-05-01 14:23 5.60770 158.00000 35856 ft 495 kts
2026-05-01 14:24 5.67616 158.00000 35859 ft 495 kts
2026-05-01 14:24 5.74505 158.00000 35856 ft 495 kts
2026-05-01 14:25 5.81400 158.00000 35857 ft 496 kts
2026-05-01 14:25 5.88298 158.00000 35858 ft 496 kts
2026-05-01 14:26 5.98600 158.00000 35857 ft 496 kts
2026-05-01 14:27 6.05506 158.00000 35855 ft 496 kts
2026-05-01 14:27 6.12407 158.00000 35854 ft 496 kts
2026-05-01 14:28 6.21580 158.00000 35855 ft 496 kts
2026-05-01 14:28 6.29607 158.00000 35856 ft 496 kts
2026-05-01 14:29 6.35343 158.00000 35858 ft 496 kts
2026-05-01 14:30 6.49143 158.00000 35861 ft 496 kts
2026-05-01 14:31 6.60613 158.00000 35859 ft 496 kts
2026-05-01 14:31 6.66343 158.00000 35862 ft 496 kts
2026-05-01 14:32 6.73126 158.00000 35861 ft 496 kts
2026-05-01 14:32 6.80024 158.00000 35861 ft 495 kts
2026-05-01 14:33 6.86917 158.00000 35861 ft 495 kts
2026-05-01 14:33 6.93808 158.00000 35862 ft 495 kts
2026-05-01 14:34 7.00650 158.00000 35858 ft 495 kts
2026-05-01 14:34 7.07537 158.00000 35858 ft 495 kts
2026-05-01 14:35 7.14420 158.00000 35857 ft 495 kts
2026-05-01 14:35 7.21305 158.00000 35860 ft 494 kts
2026-05-01 14:36 7.28183 158.00000 35855 ft 494 kts
2026-05-01 14:36 7.35019 158.00000 35856 ft 494 kts
2026-05-01 14:37 7.41899 158.00000 35858 ft 495 kts
2026-05-01 14:37 7.48786 158.00000 35858 ft 495 kts
2026-05-01 14:38 7.55655 158.00000 35855 ft 495 kts
2026-05-01 14:38 7.62498 158.00000 35851 ft 495 kts
2026-05-01 14:39 7.69390 158.00000 35851 ft 495 kts
2026-05-01 14:39 7.76285 158.00000 35850 ft 496 kts
2026-05-01 14:40 7.83181 158.00000 35851 ft 496 kts
2026-05-01 14:40 7.90090 158.00000 35849 ft 496 kts
2026-05-01 14:41 7.96956 158.00000 35847 ft 497 kts
2026-05-01 14:41 8.03879 158.00000 35847 ft 498 kts
2026-05-01 14:42 8.10815 158.00001 35851 ft 499 kts
2026-05-01 14:42 8.17763 158.00001 35851 ft 500 kts
2026-05-01 14:43 8.24677 158.00000 35848 ft 500 kts
2026-05-01 14:43 8.31645 158.00000 35853 ft 501 kts
2026-05-01 14:44 8.38617 158.00000 35850 ft 501 kts
2026-05-01 14:44 8.49083 158.00001 35849 ft 501 kts
2026-05-01 14:45 8.59506 158.00000 35849 ft 501 kts
2026-05-01 14:46 8.66468 158.00000 35849 ft 501 kts
2026-05-01 14:46 8.76925 158.00000 35847 ft 501 kts
2026-05-01 14:47 8.83849 158.00001 35848 ft 501 kts
2026-05-01 14:48 8.94313 158.00000 35850 ft 502 kts
2026-05-01 14:48 9.04785 158.00001 35851 ft 502 kts
2026-05-01 14:49 9.18742 158.00000 35852 ft 504 kts
2026-05-01 14:50 9.32768 158.00000 35852 ft 504 kts
2026-05-01 14:51 9.43257 158.00000 35852 ft 505 kts
2026-05-01 14:52 9.53789 158.00001 35850 ft 505 kts
2026-05-01 14:53 9.64326 158.00000 35855 ft 505 kts
2026-05-01 14:53 9.71302 158.00000 35853 ft 505 kts
2026-05-01 14:54 9.78327 158.00000 35854 ft 505 kts
2026-05-01 14:54 9.85349 158.00000 35855 ft 505 kts
2026-05-01 14:55 9.92379 158.00000 35857 ft 505 kts
2026-05-01 14:55 9.99372 158.00000 35857 ft 506 kts
2026-05-01 14:56 10.06405 158.00000 35860 ft 506 kts
2026-05-01 14:56 10.13450 158.00000 35856 ft 506 kts
2026-05-01 14:57 10.20496 158.00000 35858 ft 507 kts
2026-05-01 14:57 10.31031 158.00000 35856 ft 507 kts
2026-05-01 14:58 10.38090 158.00000 35858 ft 507 kts
2026-05-01 14:58 10.45145 158.00000 35858 ft 507 kts
2026-05-01 14:59 10.52208 158.00000 35858 ft 508 kts
2026-05-01 14:59 10.59231 158.00000 35859 ft 508 kts
2026-05-01 15:00 10.69837 158.00000 35859 ft 508 kts
2026-05-01 15:01 10.76902 158.00000 35857 ft 508 kts
2026-05-01 15:01 10.83970 158.00000 35859 ft 508 kts
2026-05-01 15:02 10.91041 158.00000 35856 ft 509 kts
2026-05-01 15:02 10.98077 158.00001 35857 ft 509 kts
2026-05-01 15:03 11.05161 158.00000 35861 ft 509 kts
2026-05-01 15:03 11.12244 158.00000 35864 ft 509 kts
2026-05-01 15:04 11.19324 158.00000 35863 ft 509 kts
2026-05-01 15:04 11.26348 158.00000 35861 ft 508 kts
2026-05-01 15:05 11.33423 158.00000 35863 ft 508 kts
2026-05-01 15:05 11.40499 158.00000 35868 ft 508 kts
2026-05-01 15:06 11.47569 158.00000 35865 ft 508 kts
2026-05-01 15:06 11.54596 158.00000 35866 ft 508 kts
2026-05-01 15:07 11.61662 158.00000 35865 ft 508 kts
2026-05-01 15:07 11.68741 158.00000 35867 ft 508 kts
2026-05-01 15:08 11.75816 158.00000 35867 ft 508 kts
2026-05-01 15:08 11.82841 158.00000 35868 ft 508 kts 360°
2026-05-01 15:09 11.89912 158.00000 35871 ft 508 kts 360°
2026-05-01 15:09 11.96987 158.00000 35871 ft 508 kts 360°
2026-05-01 15:10 12.04061 158.00000 35871 ft 508 kts 360°
2026-05-01 15:10 12.14625 158.00000 35873 ft 508 kts 360°
2026-05-01 15:11 12.25237 158.00000 35877 ft 508 kts 360°
2026-05-01 15:12 12.32316 158.00000 35878 ft 509 kts 359°
2026-05-01 15:12 12.42888 158.00000 35877 ft 509 kts 359°
2026-05-01 15:14 12.60594 158.00000 35882 ft 509 kts 359°
2026-05-01 15:14 12.71218 158.00000 35884 ft 509 kts 359°
2026-05-01 15:15 12.85341 158.00000 35885 ft 509 kts 359°
2026-05-01 15:16 12.99516 158.00000 35891 ft 509 kts 359°
2026-05-01 15:18 13.17188 158.00000 35892 ft 509 kts 359°
2026-05-01 15:19 13.31366 158.00000 35894 ft 509 kts 359°
2026-05-01 15:19 13.41951 158.00000 35893 ft 509 kts 359°
2026-05-01 15:20 13.52574 158.00000 35895 ft 509 kts 359°
2026-05-01 15:21 13.59657 158.00000 35897 ft 509 kts 359°
2026-05-01 15:21 13.66733 158.00000 35899 ft 508 kts 359°
2026-05-01 15:22 13.77288 158.00000 35899 ft 508 kts 358°
2026-05-01 15:22 13.84355 158.00000 35902 ft 507 kts 358°
2026-05-01 15:23 13.91411 158.00000 35902 ft 507 kts 358°
2026-05-01 15:23 13.98460 158.00000 35902 ft 506 kts 358°
2026-05-01 15:24 14.05457 158.00000 35903 ft 506 kts 358°
2026-05-01 15:24 14.12502 158.00000 35902 ft 506 kts 358°
2026-05-01 15:25 14.19424 158.00000 35994 ft 506 kts 358°
2026-05-01 15:25 14.22941 158.00000 36137 ft 506 kts 358°
2026-05-01 15:25 14.26468 158.00000 36332 ft 506 kts 358°
2026-05-01 15:26 14.29985 158.00000 36509 ft 505 kts 358°
2026-05-01 15:26 14.33500 158.00000 36674 ft 505 kts 358°
2026-05-01 15:26 14.37015 158.00000 36805 ft 505 kts 358°
2026-05-01 15:26 14.40480 158.00000 36861 ft 505 kts 358°
2026-05-01 15:27 14.47511 158.00000 36903 ft 505 kts 358°
2026-05-01 15:28 14.58056 158.00000 36915 ft 505 kts 358°
2026-05-01 15:28 14.65088 158.00000 36914 ft 505 kts 358°
2026-05-01 15:29 14.75584 158.00000 36915 ft 505 kts 358°
2026-05-01 15:30 14.89623 158.00000 36918 ft 504 kts 358°
2026-05-01 15:31 15.03512 158.01394 36928 ft 507 kts 14°
2026-05-01 15:31 15.10182 158.03822 36925 ft 508 kts 19°
2026-05-01 15:32 15.23382 158.09094 36927 ft 509 kts 19°
2026-05-01 15:34 15.43211 158.16838 36932 ft 509 kts 19°